DECAYED

CZ-6A DEB, 61284 (Decayed)

Orbit data source: Space-Track

CZ-6A DEB, 61284 was space debris in LEO originally from a launch on Tue, 06 Aug 2024 UTC launched from the Taiyaun Space Center, China (TSC). Debris objects in space refer to the collection of defunct objects orbiting the Earth. Examples of debris include non-operational satellites, rocket bodies, and fragments generated from explosions, collisions, or faulty payload assembly.

Not visible in the next 10 days
Identifier
61284, 2024-140SV
Orbit
Decayed
Country
Flag of CNCN / PRC
Related business
Manufacturer
SAST
Mission
Decayed spacecraft
Bus & Motor
Unknown
Mass
Unknown
Launch date (UTC)
2024-08-06 (2 years ago)
Launch vehicle
Unknown
Launch site
Taiyaun Space Center, China (TSC)
Object type
Payload
Rocket body
Debris
Shape & HBR
Unknown shape, 1.1 m
Radar Cross Section
Medium (>0.1 m² and <1 m²)

Expand to show TLE details & history
Last TLE update: 1 year ago

TLE from 1 year ago
0 CZ-6A DEB
1 61284U 24140SV  25097.65369475  .11573691  47028+0  37158-1 0  9998
2 61284  89.2443 329.5442 0016388 213.6534 146.3716 16.00228106 33282
Epoch: 2025-04-07T15:41Z
TLE epoch observation values (Epoch: 2025-04-07T15:41:19.226Z)
Latitude
-0°
Longitude
-101.95194°
Altitude
286.178 km
Speed
7.73 km/s
True Right ascension
21h 58m 10s
True Declination
0° 00' 00"
Sunlit
Object was in daylight at epoch
Visualization orbit readout
Latitude
Unknown
Longitude
Unknown
Altitude
Unknown
Speed
Unknown
Apparent Right ascension
Unknown
Apparent Declination
Unknown
Sunlit
N/A
Visualization observer readout
Local Sidereal Time
07:24:03
Azimuth
Unknown
Elevation
Unknown
Doppler factor
Unknown
Orbital elements
Apogee altitude
281.379 km
Perigee altitude
259.587 km
Semi-major axis
6,648.62 km
Eccentricity
0.00164
Inclination
89.2443°
RAAN
329.5442°
Arg. of periapsis
213.6534°
True anomaly
146.47542°
Mean anomaly
146.3716°
Eccentric anomaly
146.42353°
Mean motion
4.00356 °/min
Orbital period
89.92 mins
BSTAR
0.037158
Loading maneuver chart data...
Computing Atmospheric mass density...
Loading historical data...
Loading historical data...
Loading historical data...
Loading historical data...
Loading historical data...
Loading historical data...
Loading historical data...

Documentation

Showing up to 5 results
|